Indiana, PA

4:29 AM EST on January 17, 2017 (GMT -0500)
Indiana County-Stewart

Weather History for KIDI - March, 2013

Change the Weather History Date:

Friday, March 1, 2013

  Actual Average Record
Temperature  
Mean Temperature 28 °F -  
Max Temperature 32 °F 46 °F 73 °F (1972)
Min Temperature 24 °F 23 °F -2 °F (1967)
Degree Days  
Heating Degree Days 37    
Moisture  
Dew Point 28 °F    
Average Humidity 97    
Maximum Humidity 100    
Minimum Humidity 93    
Precipitation  
Precipitation 0.00 in - - ()
Sea Level Pressure  
Sea Level Pressure 29.84 in    
Wind  
Wind Speed 8 mph (NW)    
Max Wind Speed 10 mph    
Max Gust Speed 16 mph    
Visibility 10 miles    
Events      
Averages and records for this station are not official NWS values.
T = Trace of Precipitation, MM = Missing Value Source: NWS Daily Summary

Daily Weather History Graph

Daily Weather History Graph

Search for Another Location

Airport or City:

Trip Planner

Search our weather history database for the weather conditions in past years. The results will help you decide how hot, cold, wet, or windy it might be!

Date:

Astronomy

Mar. 01, 2013 Rise Set
Actual Time 6:49 AM EST 6:08 PM EST
Civil Twilight 6:22 AM EST 6:35 PM EST
Nautical Twilight 5:50 AM EST 7:07 PM EST
Astronomical Twilight 5:19 AM EST 7:38 PM EST
Moon 10:41 PM EST (3/1) 8:34 AM EST (3/1)
Length of Visible Light 12h 12m
Length of Day
11h 18m
Waning Gibbous, 83% of the Moon is Illuminated
Mar 1
Waning Gibbous
Mar 4
Last Quarter
Mar 11
New
Mar 19
First Quarter
Mar 27
Full

Hourly Weather History & Observations

Time (EST) Temp. Windchill Dew Point Humidity Pressure Visibility Wind Dir Wind Speed Gust Speed Precip Events Conditions
12:15 AM 32.0 °F 23.6 °F 32.0 °F 100% 29.74 in 7.0 mi WNW 10.4 mph - N/A   Unknown
12:35 AM 32.0 °F 25.6 °F 32.0 °F 100% 29.75 in 10.0 mi WNW 6.9 mph - N/A   Unknown
12:55 AM 32.0 °F 27.5 °F 32.0 °F 100% 29.75 in 7.0 mi WNW 4.6 mph - N/A   Unknown
1:15 AM 30.2 °F 23.4 °F 30.2 °F 100% 29.76 in 5.0 mi WNW 6.9 mph - N/A   Unknown
1:35 AM 30.2 °F 22.6 °F 30.2 °F 100% 29.76 in 7.0 mi NW 8.1 mph - N/A   Unknown
2:15 AM 30.2 °F 22.6 °F 30.2 °F 100% 29.77 in 7.0 mi NW 8.1 mph - N/A   Unknown
2:35 AM 30.2 °F 22.6 °F 30.2 °F 100% 29.77 in 10.0 mi NW 8.1 mph - N/A   Unknown
2:55 AM 30.2 °F 23.4 °F 30.2 °F 100% 29.77 in 7.0 mi WNW 6.9 mph - N/A   Unknown
3:15 AM 30.2 °F 22.6 °F 30.2 °F 100% 29.77 in 7.0 mi WNW 8.1 mph - N/A   Unknown
3:35 AM 30.2 °F 24.3 °F 30.2 °F 100% 29.77 in 10.0 mi NW 5.8 mph - N/A   Unknown
3:55 AM 30.2 °F 22.6 °F 30.2 °F 100% 29.77 in 7.0 mi NW 8.1 mph - N/A   Unknown
4:35 AM 30.2 °F 21.9 °F 30.2 °F 100% 29.78 in 10.0 mi NW 9.2 mph - N/A   Unknown
4:55 AM 30.2 °F 24.3 °F 30.2 °F 100% 29.78 in 10.0 mi NW 5.8 mph - N/A   Unknown
5:15 AM 30.2 °F 24.3 °F 30.2 °F 100% 29.78 in 7.0 mi NW 5.8 mph - N/A   Unknown
5:35 AM 30.2 °F 21.9 °F 30.2 °F 100% 29.79 in 10.0 mi NNW 9.2 mph - N/A   Unknown
5:55 AM 30.2 °F 21.9 °F 30.2 °F 100% 29.79 in 10.0 mi NNW 9.2 mph - N/A   Unknown
6:15 AM 30.2 °F 21.9 °F 30.2 °F 100% 29.79 in 10.0 mi NW 9.2 mph - N/A   Unknown
6:35 AM 28.4 °F 23.3 °F 28.4 °F 100% 29.80 in 10.0 mi NNW 4.6 mph - N/A   Unknown
7:15 AM 28.4 °F 21.2 °F 28.4 °F 100% 29.81 in 10.0 mi NNW 6.9 mph - N/A   Unknown
7:35 AM 28.4 °F 22.2 °F 28.4 °F 100% 29.82 in 10.0 mi NW 5.8 mph - N/A   Unknown
7:55 AM 28.4 °F 20.4 °F 28.4 °F 100% 29.82 in 10.0 mi NW 8.1 mph - N/A   Unknown
8:15 AM 28.4 °F 19.7 °F 28.4 °F 100% 29.83 in 10.0 mi NW 9.2 mph - N/A   Unknown
8:35 AM 28.4 °F 22.2 °F 28.4 °F 100% 29.84 in 10.0 mi NW 5.8 mph - N/A   Unknown
8:55 AM 28.4 °F 21.2 °F 28.4 °F 100% 29.84 in 10.0 mi NW 6.9 mph - N/A   Unknown
9:15 AM 30.2 °F 24.3 °F 30.2 °F 100% 29.84 in 10.0 mi NW 5.8 mph - N/A   Unknown
9:35 AM 30.2 °F 22.6 °F 30.2 °F 100% 29.84 in 10.0 mi NW 8.1 mph - N/A   Unknown
10:15 AM 30.2 °F 25.4 °F 30.2 °F 100% 29.84 in 10.0 mi NW 4.6 mph - N/A   Unknown
10:35 AM 30.2 °F 21.9 °F 30.2 °F 100% 29.84 in 10.0 mi NW 9.2 mph - N/A   Unknown
10:55 AM 30.2 °F 21.3 °F 28.4 °F 93% 29.84 in 10.0 mi NW 10.4 mph - N/A   Unknown
11:15 AM 30.2 °F 23.4 °F 28.4 °F 93% 29.84 in 10.0 mi NW 6.9 mph - N/A   Unknown
11:35 AM 30.2 °F 24.3 °F 28.4 °F 93% 29.85 in 10.0 mi NW 5.8 mph - N/A   Unknown
11:55 AM 30.2 °F 21.9 °F 28.4 °F 93% 29.85 in 10.0 mi NW 9.2 mph - N/A   Unknown
12:15 PM 30.2 °F 23.4 °F 28.4 °F 93% 29.85 in 10.0 mi NNW 6.9 mph - N/A   Unknown
12:35 PM 30.2 °F 21.3 °F 28.4 °F 93% 29.85 in 10.0 mi NNW 10.4 mph - N/A   Unknown
1:15 PM 30.2 °F 21.9 °F 28.4 °F 93% 29.85 in 10.0 mi NW 9.2 mph 16.1 mph N/A   Unknown
1:35 PM 28.4 °F 19.1 °F 28.4 °F 100% 29.85 in 10.0 mi NW 10.4 mph - N/A   Unknown
1:55 PM 28.4 °F 19.1 °F 28.4 °F 100% 29.85 in 10.0 mi NW 10.4 mph - N/A   Unknown
2:15 PM 28.4 °F 20.4 °F 28.4 °F 100% 29.85 in 10.0 mi NNW 8.1 mph - N/A   Unknown
2:35 PM 28.4 °F 20.4 °F 28.4 °F 100% 29.85 in 10.0 mi NNW 8.1 mph - N/A   Unknown
2:55 PM 28.4 °F 19.7 °F 26.6 °F 93% 29.85 in 10.0 mi NNW 9.2 mph - N/A   Unknown
3:15 PM 28.4 °F 22.2 °F 26.6 °F 93% 29.85 in 10.0 mi NNW 5.8 mph - N/A   Unknown
3:35 PM 28.4 °F 19.1 °F 26.6 °F 93% 29.86 in 10.0 mi North 10.4 mph 16.1 mph N/A   Unknown
3:55 PM 28.4 °F 20.4 °F 26.6 °F 93% 29.86 in 10.0 mi NNW 8.1 mph - N/A   Unknown
4:15 PM 28.4 °F 19.7 °F 26.6 °F 93% 29.86 in 10.0 mi NW 9.2 mph - N/A   Unknown
4:35 PM 28.4 °F 19.7 °F 26.6 °F 93% 29.86 in 10.0 mi WNW 9.2 mph - N/A   Unknown
4:55 PM 28.4 °F 22.2 °F 26.6 °F 93% 29.87 in 10.0 mi NW 5.8 mph - N/A   Unknown
5:15 PM 28.4 °F 20.4 °F 26.6 °F 93% 29.87 in 10.0 mi NW 8.1 mph - N/A   Unknown
5:35 PM 28.4 °F 19.7 °F 26.6 °F 93% 29.87 in 10.0 mi NW 9.2 mph - N/A   Unknown
6:15 PM 28.4 °F 23.3 °F 26.6 °F 93% 29.89 in 10.0 mi NNW 4.6 mph - N/A   Unknown
6:35 PM 28.4 °F 20.4 °F 26.6 °F 93% 29.89 in 10.0 mi NW 8.1 mph - N/A   Unknown
6:55 PM 28.4 °F 21.2 °F 26.6 °F 93% 29.89 in 10.0 mi NNW 6.9 mph - N/A   Unknown
7:15 PM 28.4 °F 21.2 °F 26.6 °F 93% 29.90 in 10.0 mi NW 6.9 mph - N/A   Unknown
7:35 PM 26.6 °F 20.0 °F 26.6 °F 100% 29.89 in 10.0 mi NW 5.8 mph - N/A   Unknown
7:55 PM 26.6 °F 19.1 °F 26.6 °F 100% 29.89 in 10.0 mi NNW 6.9 mph - N/A   Unknown
8:15 PM 26.6 °F 18.2 °F 24.8 °F 93% 29.90 in 10.0 mi NW 8.1 mph - N/A   Unknown
8:35 PM 26.6 °F 19.1 °F 24.8 °F 93% 29.90 in 10.0 mi North 6.9 mph - N/A   Unknown
8:55 PM 26.6 °F 19.1 °F 24.8 °F 93% 29.90 in 10.0 mi NNW 6.9 mph - N/A   Unknown
9:15 PM 26.6 °F 19.1 °F 24.8 °F 93% 29.91 in 10.0 mi NW 6.9 mph - N/A   Unknown
9:35 PM 26.6 °F 20.0 °F 24.8 °F 93% 29.91 in 10.0 mi NW 5.8 mph - N/A   Unknown
9:55 PM 26.6 °F 19.1 °F 24.8 °F 93% 29.91 in 10.0 mi NW 6.9 mph - N/A   Unknown
10:15 PM 26.6 °F 19.1 °F 24.8 °F 93% 29.91 in 10.0 mi WNW 6.9 mph - N/A   Unknown
10:35 PM 26.6 °F 18.2 °F 24.8 °F 93% 29.91 in 10.0 mi NW 8.1 mph - N/A   Unknown
10:55 PM 24.8 °F 17.9 °F 24.8 °F 100% 29.91 in 10.0 mi WNW 5.8 mph - N/A   Unknown
11:15 PM 24.8 °F 16.1 °F 24.8 °F 100% 29.91 in 10.0 mi NW 8.1 mph - N/A   Unknown
11:35 PM 24.8 °F 15.3 °F 24.8 °F 100% 29.90 in 10.0 mi WNW 9.2 mph - N/A   Unknown
11:55 PM 24.8 °F 16.9 °F 24.8 °F 100% 29.90 in 10.0 mi WNW 6.9 mph - N/A   Unknown